RH
98 98 98 99 97 94 92 82 64 59 71 81 88 96 100 100 96 89 90 97 100 99 99 98 100 98 87 77 75 74 76 83 79 75 84 87 78 77 74 66 66 69 69 67 66 73 74 57 41 36 30 26 25 19 18 19 16 19 26 23 22 34 40 35 28 22 17 13 12 13 11 10 12 13 14 16 20 29 52 75 60 29 30 38 27 31 51
100 98 98 100 95 92 90 75 54 57 80 93 96 98 99 101 100 90 88 95 98 98 98 97 97 93 84 82 81 76 73 75 75 76 82 81 75 79 78 66 64 67 62 64 67 66 68 62 47 38 32 24 21 19 16 17 17 19 28 27 25 35 39 36 35 29 22 22 19 16 14 13 20 24 15 12 19 23 35 54 45 27 36 41 28 38 63
100 96 95 98 93 89 87 71 51 57 81 93 95 99 99 100 100 90 88 95 98 98 98 98 99 94 89 90 86 81 77 71 70 74 75 72 68 76 79 67 63 65 62 65 67 61 65 65 49 38 32 21 17 18 16 16 17 17 20 22 26 38 49 55 49 37 36 35 26 25 25 18 20 22 13 12 15 14 25 36 29 30 41 36 33 52 68
100 96 94 93 89 89 87 71 49 51 75 88 90 96 99 100 99 92 89 94 98 100 99 99 101 96 96 96 86 85 87 75 68 71 74 71 65 70 75 66 64 68 67 74 73 60 56 56 48 41 35 28 20 14 16 16 13 17 20 23 31 37 49 65 56 42 47 40 22 22 26 21 22 20 14 14 13 19 37 39 32 42 44 34 48 66 61
99 95 92 88 87 91 92 80 55 45 65 83 84 90 97 99 98 95 94 96 97 99 98 100 101 96 98 97 87 89 92 83 76 76 77 74 69 73 76 70 75 78 74 81 77 59 51 50 46 41 36 33 23 12 16 15 12 22 23 24 34 30 31 47 45 40 47 37 19 19 23 22 23 23 19 16 18 28 37 38 43 50 41 37 62 71 54
99 96 90 85 86 91 94 90 69 47 55 75 81 88 96 96 93 93 97 98 97 96 96 98 100 97 97 95 90 92 95 92 89 83 81 82 77 80 83 80 83 78 72 80 78 67 67 65 57 48 42 44 35 19 19 15 13 26 30 33 43 39 38 44 37 35 42 33 22 19 21 22 18 21 28 23 23 28 28 40 57 50 39 52 70 67 52
100 97 91 86 87 88 89 93 82 57 53 69 84 94 98 98 97 94 95 98 98 97 96 98 100 98 97 96 95 96 96 95 89 82 87 92 82 80 86 86 83 73 66 76 81 79 85 86 79 68 64 67 52 32 31 25 19 30 38 40 41 40 45 48 42 43 44 41 37 23 15 20 16 19 31 29 31 40 37 46 59 49 47 65 71 61 50
100 99 95 92 92 89 89 95 89 67 55 64 82 96 100 100 100 98 97 99 97 93 91 95 100 97 97 98 95 96 99 95 86 81 89 97 90 82 86 89 85 76 70 74 78 76 81 90 89 78 78 79 58 40 41 34 24 30 35 36 38 40 44 50 58 59 43 43 51 31 16 23 20 18 27 28 33 40 35 36 42 39 42 56 62 54 44
96 99 95 94 94 89 89 95 92 78 67 70 84 96 99 100 99 99 101 98 92 88 86 91 99 99 99 98 93 95 98 93 90 88 84 89 93 88 87 90 87 81 78 76 73 67 68 77 76 69 73 74 61 49 40 27 24 30 31 33 36 42 47 55 71 65 39 41 52 36 24 27 21 19 23 26 32 35 32 34 36 34 39 51 53 40 42
86 96 93 88 89 87 87 94 95 86 80 85 93 97 98 101 100 99 101 98 90 86 86 90 96 97 99 100 96 97 95 88 91 94 83 78 83 83 85 91 92 91 88 80 71 66 66 69 65 61 63 60 57 53 35 21 24 29 36 40 39 51 59 60 69 59 37 48 59 43 33 27 26 41 42 33 38 38 31 32 35 39 46 46 36 30 51
76 89 92 87 86 85 87 93 95 92 92 94 98 99 99 100 100 98 101 100 91 85 88 93 95 94 95 95 94 93 92 88 89 93 90 84 81 80 82 89 94 95 86 71 61 59 60 59 52 53 59 57 54 45 23 18 24 24 36 45 44 59 64 58 70 64 40 52 61 42 35 37 47 72 72 52 45 38 29 29 32 38 49 50 45 50 70
69 81 89 87 85 83 84 90 93 96 98 94 92 98 100 99 100 100 100 100 94 88 91 94 92 91 89 88 90 89 89 88 87 89 94 92 85 79 78 83 90 87 71 59 56 57 56 53 48 47 52 49 42 29 16 22 28 22 31 45 50 60 58 52 71 71 53 63 65 39 38 55 66 78 80 71 63 49 38 37 36 42 54 62 68 74 79
67 73 82 82 81 81 83 88 91 94 95 87 83 94 101 99 100 100 99 102 97 91 95 95 88 85 86 87 89 86 83 83 81 82 88 90 89 83 75 78 83 75 62 57 60 63 64 67 63 52 44 41 34 25 22 29 30 24 29 41 52 63 60 51 59 64 59 64 65 54 53 62 69 73 75 73 64 47 35 28 30 48 61 61 68 77 77
64 68 76 77 77 78 79 83 86 92 92 82 77 90 101 99 100 100 99 101 97 91 97 96 84 82 88 90 89 87 84 82 79 79 79 79 85 84 76 74 74 66 61 62 63 64 65 69 67 51 43 47 40 29 29 30 28 31 32 35 46 55 53 47 49 59 66 64 63 68 63 54 59 65 64 61 50 44 46 35 32 57 73 64 64 72 75
61 65 72 74 75 76 76 77 81 88 87 75 71 87 100 98 99 101 99 100 100 97 94 90 85 89 93 90 89 90 90 88 87 86 79 71 74 75 68 68 67 58 55 59 67 73 67 61 63 55 49 52 41 29 31 26 23 35 39 39 44 43 41 49 51 55 72 77 69 63 55 53 63 68 68 64 52 56 67 48 31 53 75 68 62 67 75
56 61 68 72 73 73 74 74 76 83 85 73 66 81 98 100 98 100 99 99 102 96 83 76 83 93 94 87 85 88 90 92 93 94 89 80 74 70 63 61 61 56 55 59 68 77 70 58 58 54 44 40 36 31 31 25 21 31 39 44 48 44 53 74 69 53 67 83 75 61 54 55 65 76 76 63 50 55 57 39 32 53 69 66 63 69 79
51 57 65 69 68 66 66 68 69 76 83 76 66 73 89 98 98 99 100 100 101 96 81 76 87 97 95 90 87 85 85 88 90 94 96 89 80 76 70 62 56 51 55 68 75 77 75 69 64 55 42 33 31 30 30 30 26 24 29 42 48 45 58 78 69 50 62 77 68 59 58 53 58 76 77 55 41 40 34 35 54 66 64 65 67 71 77
51 55 62 66 60 50 51 56 57 64 72 71 65 65 75 90 99 101 99 98 101 97 80 75 89 97 90 87 89 86 82 86 90 93 94 90 84 84 80 76 71 60 56 72 84 81 81 80 70 62 55 44 37 36 35 35 35 32 33 40 43 41 50 65 62 49 56 67 58 50 58 61 62 70 64 41 30 31 36 56 74 68 62 68 67 63 70
55 55 60 65 55 40 40 46 47 54 61 63 62 60 66 82 93 98 100 99 102 96 71 60 76 84 78 81 85 80 77 82 87 92 96 91 81 77 77 76 78 76 73 80 87 83 83 84 79 76 75 69 63 58 46 37 37 38 35 36 44 44 41 50 56 44 48 70 73 59 60 64 62 59 50 38 39 50 62 71 71 64 66 67 60 58 66
59 57 61 65 55 37 36 42 41 45 55 62 64 60 60 68 74 84 95 98 102 96 66 49 63 73 73 79 82 79 80 81 80 88 96 88 76 78 85 82 78 84 88 88 87 86 88 91 88 84 85 89 85 73 60 49 39 34 34 39 50 52 44 47 55 47 48 66 69 58 61 70 68 63 57 56 63 69 70 69 68 70 71 63 56 58 61
59 56 61 69 60 38 29 32 33 38 49 62 67 60 54 54 55 69 88 96 104 101 70 49 58 66 64 64 65 71 80 77 73 81 85 78 75 84 92 90 87 92 95 90 87 86 88 92 91 85 86 92 88 75 70 64 48 39 41 40 39 44 46 50 57 55 54 59 56 56 71 83 81 76 72 70 68 63 60 64 68 69 67 62 58 57 53
60 54 61 67 56 34 22 22 26 32 41 54 64 61 54 47 45 63 85 92 97 94 71 55 57 54 46 45 46 52 60 59 61 72 75 73 75 79 81 84 87 89 87 85 82 80 83 90 91 90 92 93 88 83 82 74 61 58 58 48 41 47 54 62 74 79 75 73 71 73 82 85 80 79 78 73 66 60 61 63 63 64 64 61 58 56 52
65 57 60 55 39 25 18 18 21 27 32 41 52 55 53 46 43 59 80 88 89 82 62 52 52 43 33 35 39 42 47 52 57 64 69 75 75 71 73 80 82 79 79 81 80 80 87 91 89 92 96 90 85 87 82 73 72 75 72 64 58 57 60 74 90 92 82 79 80 80 82 80 73 70 73 72 67 63 63 61 59 61 61 59 59 60 58
72 56 48 41 31 21 15 15 20 23 26 32 39 48 52 44 41 58 79 90 94 88 69 56 51 43 36 35 37 42 46 49 54 57 64 74 75 70 71 73 73 74 76 78 78 78 81 83 84 90 91 81 81 88 81 73 78 81 81 84 77 64 64 79 90 89 85 86 88 84 81 77 68 62 64 69 67 63 62 63 62 60 58 57 59 60 60
79 56 34 27 29 24 15 13 17 20 23 27 32 42 49 43 44 68 91 97 98 100 96 79 53 36 36 38 37 41 42 40 45 53 59 63 65 65 66 63 65 72 74 75 77 77 77 79 85 92 87 76 82 94 87 77 79 83 89 94 80 62 63 76 86 92 92 88 85 83 79 74 68 64 64 65 64 63 62 61 61 59 58 57 56 55 57
80 57 30 21 27 25 17 14 16 18 21 25 30 40 47 45 53 77 96 101 98 97 103 95 57 27 31 39 33 31 35 34 36 44 48 51 56 59 57 55 61 69 71 73 77 79 81 85 90 95 90 79 82 92 89 81 83 87 92 90 77 68 71 76 82 91 91 84 81 81 80 76 70 65 65 64 62 62 61 58 57 57 57 56 55 54 53
78 58 32 19 22 24 18 15 16 16 18 25 34 40 42 50 69 86 93 100 102 95 96 100 73 36 29 35 30 27 33 34 35 39 42 45 50 52 53 56 61 64 68 77 85 85 83 83 84 88 87 82 83 87 84 81 88 92 92 88 82 81 84 82 83 89 92 88 82 79 83 85 74 64 64 64 62 60 60 58 57 56 56 56 55 55 53
74 55 31 18 20 23 19 16 16 15 18 28 37 41 48 63 83 95 96 98 101 98 98 102 89 59 39 31 26 28 33 34 35 39 40 41 43 44 47 54 58 58 63 74 83 86 85 82 80 83 84 82 85 87 81 81 90 95 92 87 83 82 82 82 85 87 84 79 72 70 75 80 72 64 63 63 61 61 61 60 60 59 58 57 55 55 56
70 50 28 18 20 21 18 17 16 14 18 28 35 45 66 86 94 97 99 100 101 100 99 98 90 73 53 37 27 26 31 35 36 35 36 39 40 38 40 44 45 48 53 58 64 72 76 71 69 74 73 70 78 89 91 90 94 93 85 79 76 73 72 72 76 78 75 71 67 65 67 69 67 64 64 63 62 62 61 61 61 60 58 58 56 55 57
66 48 27 18 19 20 18 19 18 14 17 25 31 41 66 92 100 96 96 99 99 95 96 99 94 77 56 40 31 26 25 30 33 30 30 34 36 34 34 36 35 35 38 41 46 55 58 54 54 59 58 57 70 90 97 95 93 87 79 75 72 67 63 63 67 71 72 68 64 62 62 64 65 63 63 63 62 61 60 61 61 60 58 58 57 55 56
61 42 23 17 18 18 18 18 18 15 15 22 33 46 65 87 96 90 90 98 96 85 85 97 101 87 64 45 34 29 26 27 29 28 27 29 32 32 32 32 32 29 26 28 34 40 43 47 52 53 51 52 66 85 95 97 95 85 72 68 67 63 60 60 63 66 66 64 61 61 61 62 62 62 62 62 60 59 59 60 59 59 59 59 58 58 57
54 33 18 16 17 16 17 18 18 17 17 22 33 43 52 63 67 62 67 81 81 72 76 90 100 99 82 55 36 30 28 25 25 26 26 26 28 29 30 31 33 30 23 23 29 34 37 40 43 46 47 50 63 83 95 96 91 79 65 60 61 61 59 61 63 65 64 60 60 63 63 61 61 61 61 60 59 58 58 58 57 58 60 62 62 62 60
48 26 16 17 16 14 17 16 14 16 17 21 28 33 37 51 66 69 72 77 73 71 82 92 98 99 87 62 40 31 27 25 24 23 25 26 26 26 29 31 31 28 23 24 30 33 34 34 36 41 46 49 63 86 94 84 75 69 61 56 58 59 59 62 65 66 63 58 59 63 64 63 62 61 59 58 59 58 59 60 59 57 58 61 64 65 65
42 22 14 15 14 15 16 13 13 16 16 17 25 29 35 55 78 89 92 91 87 88 95 99 100 98 86 66 50 37 29 26 25 24 26 24 20 23 29 29 28 28 27 27 28 30 32 33 37 46 53 55 65 83 87 75 67 65 58 53 54 56 56 58 60 61 60 59 59 60 61 61 61 60 58 58 59 60 61 63 62 61 62 67 70 72 71
38 21 14 14 15 14 12 10 11 13 14 22 32 42 54 73 88 96 97 92 87 90 96 96 96 94 87 78 66 47 32 27 24 23 24 22 18 21 25 24 27 32 29 25 27 34 36 33 35 50 63 64 68 81 86 78 68 62 57 54 54 53 52 54 55 54 56 59 59 58 58 58 58 58 59 59 58 59 61 64 67 68 69 74 79 78 75
38 21 13 19 24 20 19 27 29 22 29 48 62 73 86 95 94 92 87 81 80 86 90 92 93 89 85 82 68 45 33 33 28 19 18 20 19 19 20 25 34 36 28 29 39 43 36 31 39 57 71 71 67 70 73 71 64 59 57 56 55 52 51 52 52 51 51 54 57 57 55 55 58 61 62 62 61 61 62 65 69 71 73 76 80 80 78
37 19 14 31 48 47 54 71 71 56 57 72 81 85 89 87 81 80 80 82 88 90 90 97 100 86 73 72 63 45 39 40 33 21 18 19 17 14 16 29 41 37 30 36 44 37 28 37 58 70 67 62 60 58 57 58 59 58 58 57 55 53 52 50 49 50 52 54 58 58 56 57 62 63 63 63 63 62 62 65 68 70 72 75 78 78 78
29 15 15 37 59 69 80 93 93 84 82 85 85 83 78 73 77 87 91 96 100 96 93 101 99 77 64 68 62 46 37 37 34 30 26 21 20 20 19 23 32 35 35 37 35 28 30 51 73 72 53 45 50 55 55 56 57 56 57 57 54 51 51 50 49 51 55 60 63 62 61 64 67 66 65 65 65 65 66 69 71 71 71 73 76 78 78
19 16 22 39 60 74 83 87 86 82 79 77 79 80 72 69 80 92 95 99 102 98 99 104 91 70 70 76 64 42 30 32 41 45 36 24 24 28 26 22 24 32 40 40 36 37 46 59 69 66 54 47 52 56 55 56 56 54 53 54 51 49 50 50 48 48 52 58 62 61 61 64 67 67 67 69 71 73 72 72 73 75 77 78 79 78 78
17 24 31 41 51 61 73 81 77 66 61 66 78 82 75 72 77 78 79 88 92 88 91 93 77 58 59 66 60 44 29 24 32 38 34 26 24 24 27 28 23 26 38 43 40 45 56 59 60 63 61 54 52 52 52 53 53 50 49 49 49 49 49 49 48 50 53 58 62 63 63 65 67 68 70 71 74 75 73 72 75 80 84 87 88 86 84
18 28 40 47 45 44 55 68 66 57 58 69 79 80 76 73 67 55 53 66 74 67 62 64 59 48 45 48 49 43 30 21 20 23 26 30 25 18 24 30 23 23 36 37 31 40 56 56 56 67 69 55 45 46 49 49 49 50 50 50 49 48 49 51 53 55 56 60 64 65 66 67 68 71 75 75 72 71 72 75 78 81 84 88 91 92 92
27 42 56 63 55 44 44 49 50 55 66 72 72 72 70 65 59 51 47 51 53 46 41 43 44 39 34 33 33 30 25 20 17 17 24 29 23 17 27 33 25 25 34 32 29 42 53 49 51 63 62 48 42 47 49 49 49 50 51 51 50 49 49 52 56 57 56 58 62 64 65 67 70 73 76 76 73 72 74 76 78 80 82 86 88 90 94
44 65 77 78 68 57 55 54 54 63 73 74 72 74 70 60 57 56 52 46 40 33 30 34 35 30 28 29 27 25 25 23 18 18 25 27 22 22 30 31 26 27 32 34 40 51 54 54 61 62 48 38 44 51 49 48 50 51 51 51 52 51 50 51 56 58 58 58 60 61 63 67 72 75 76 76 76 77 77 78 79 80 81 83 87 91 95
55 69 78 81 75 68 66 65 64 68 75 73 70 71 72 72 71 65 56 52 51 42 33 33 33 31 33 34 29 25 26 23 19 19 22 22 23 27 28 29 32 35 33 34 45 51 49 52 59 53 40 38 45 48 47 50 52 51 51 52 51 51 51 53 55 57 57 58 59 59 58 61 68 75 78 77 77 78 78 79 82 84 83 83 88 93 96
66 70 77 85 84 74 66 63 62 65 71 73 69 68 72 78 78 66 53 50 52 47 39 36 34 32 34 35 32 30 28 24 21 24 25 25 30 32 28 30 38 40 36 40 49 52 51 55 54 42 36 42 45 44 47 51 50 47 49 53 52 51 53 54 53 52 53 57 59 60 60 59 62 69 74 72 71 76 81 82 84 86 87 86 89 93 95
71 73 76 86 87 74 63 64 68 67 65 63 60 60 63 65 62 56 50 48 48 46 43 40 36 34 35 34 32 32 29 22 23 29 30 28 31 30 24 26 33 35 38 50 59 59 64 71 62 44 38 43 46 46 49 49 46 45 48 52 54 54 54 54 54 54 55 58 60 63 65 62 59 62 68 68 66 72 81 84 84 86 86 85 85 88 89
74 69 70 84 90 77 64 64 67 61 54 49 45 46 50 52 50 48 48 49 49 47 45 40 36 35 35 32 33 39 37 28 26 31 32 30 33 32 28 30 35 34 37 49 60 66 70 68 53 40 40 47 50 51 51 48 47 48 50 52 55 56 54 55 58 59 58 59 60 62 63 62 59 60 67 72 73 75 80 83 83 82 81 79 79 81 84
78 72 71 82 88 79 69 66 62 53 45 44 44 43 45 50 51 50 49 50 49 48 46 44 41 41 41 37 38 45 44 33 28 31 31 29 32 34 34 36 38 38 43 56 66 68 64 53 40 38 45 51 51 51 50 47 47 50 51 52 54 55 54 54 57 59 59 60 60 58 58 60 63 64 68 73 75 74 75 79 80 77 75 77 78 79 81
82 79 75 74 73 68 63 62 64 59 48 43 47 51 50 49 50 51 52 53 51 50 48 42 39 44 47 41 35 39 42 36 32 32 31 29 30 35 37 36 32 32 45 64 69 60 48 42 40 43 47 51 51 50 48 47 48 50 52 52 53 54 55 52 52 57 61 61 59 57 56 58 64 67 68 70 70 66 67 74 79 76 75 79 81 80 79
78 77 72 68 71 72 65 60 66 69 56 43 45 53 56 54 54 56 57 55 52 51 49 43 37 41 46 41 37 41 45 40 34 31 29 30 34 34 30 28 33 40 49 57 56 46 39 41 44 47 49 51 50 47 46 49 51 52 53 54 54 56 56 53 53 59 65 64 60 60 60 61 64 66 65 66 67 66 68 73 77 77 78 80 80 78 79
68 65 60 57 62 68 64 60 67 72 61 46 41 47 54 58 59 59 57 54 52 55 58 54 46 44 44 42 41 41 37 33 36 38 36 36 40 36 28 33 50 61 58 48 41 39 41 45 47 49 50 50 47 45 47 51 53 52 54 56 57 57 56 53 53 60 68 68 65 64 64 64 65 65 63 63 66 70 71 69 67 71 78 79 77 76 77
60 57 55 50 49 49 47 47 49 49 45 41 44 50 55 57 55 55 57 56 53 53 56 55 51 47 44 43 44 42 33 31 41 46 41 37 38 38 39 47 56 57 49 43 42 43 45 46 47 49 50 49 47 47 49 51 51 52 54 56 58 59 57 53 54 62 68 67 65 67 68 67 66 66 65 64 66 69 69 67 66 70 75 76 74 74 76
Wind_Speed
24 23 23 25 26 26 26 26 25 25 26 27 28 25 17 9 10 10 8 7 6 4 3 2 3 4 6 8 10 12 9 6 8 7 6 6 6 6 5 5 4 3 3 3 3 3 3 3 4 5 5 8 12 15 19 20 11 4 4 7 8 6 2 4 3 2 4 3 2 5 7 5 3 3 2 5 5 5 6 4 4 3 2 1 4 2 6
24 23 23 24 25 25 26 25 25 24 22 22 24 23 17 13 13 9 4 5 5 3 2 2 3 4 7 8 10 12 10 8 9 6 4 5 3 2 3 3 3 3 3 4 4 3 3 3 4 6 5 7 19 22 18 18 12 5 5 5 5 6 2 4 6 4 4 3 1 1 4 4 4 2 2 4 6 6 5 2 2 2 3 5 5 3 6
24 23 23 24 25 26 25 24 25 23 18 17 18 18 17 13 9 5 5 7 6 4 3 3 4 5 8 9 9 9 8 7 8 7 6 7 5 2 2 4 4 4 4 5 6 5 4 3 3 5 5 5 14 18 17 18 14 13 16 11 3 5 2 3 7 6 7 7 4 5 6 3 3 2 2 4 6 8 6 2 3 1 3 4 6 4 5
24 23 23 24 25 26 25 24 25 22 18 17 16 13 11 8 4 4 6 7 6 7 7 5 4 4 5 7 7 5 3 5 10 10 6 7 7 3 3 4 4 5 4 3 5 6 6 7 5 5 5 4 4 11 16 17 18 22 24 17 4 3 1 2 7 7 6 6 2 3 6 5 4 3 2 4 5 7 6 5 4 4 3 2 4 5 2
23 23 22 23 25 25 25 25 25 24 20 16 15 12 9 5 3 4 6 6 5 6 7 5 3 3 4 3 4 5 5 5 7 6 2 3 4 3 4 4 3 3 3 2 4 4 3 5 7 7 6 5 3 11 16 15 20 23 17 9 1 2 2 1 6 7 4 4 3 3 6 6 7 5 3 6 6 7 8 5 5 5 5 2 7 4 7
22 22 22 22 23 24 24 25 26 26 22 16 14 13 9 5 5 8 8 5 2 3 7 7 5 6 5 2 2 6 7 6 4 3 5 5 1 2 2 5 6 7 6 3 3 3 5 4 5 4 2 6 5 6 9 8 15 15 5 2 2 3 1 4 4 5 2 1 3 5 7 5 7 7 4 5 6 8 7 5 6 6 6 5 7 5 7
22 22 22 23 24 24 25 26 27 27 24 18 15 13 9 6 5 9 11 8 8 11 15 15 9 5 4 3 3 4 5 6 5 3 3 4 3 4 2 3 5 7 6 3 0 1 2 3 4 3 4 7 5 3 4 5 7 6 2 2 1 2 1 4 2 5 5 5 2 5 8 6 4 6 6 5 6 8 7 5 6 7 5 6 7 6 3
21 21 21 22 24 24 24 25 26 27 26 21 18 15 11 9 8 11 14 12 12 14 15 12 6 3 2 2 4 4 4 6 6 3 4 3 1 3 3 4 6 5 1 1 1 3 3 3 5 2 4 7 4 3 3 3 5 6 1 4 2 2 2 4 2 5 4 6 4 3 8 8 6 5 6 3 6 5 4 4 5 4 1 3 7 8 2
21 20 20 21 22 23 23 23 25 26 27 25 20 15 12 12 13 15 13 9 8 10 11 8 4 2 2 2 3 3 3 7 8 5 5 5 3 3 3 6 6 4 4 3 4 5 4 6 9 7 4 6 6 3 2 5 8 4 6 5 1 3 0 2 4 5 2 4 3 2 6 6 5 6 8 3 6 3 3 3 5 5 4 2 6 7 3
20 20 20 21 21 22 21 22 24 25 26 25 20 15 13 15 18 18 11 6 5 7 8 7 5 3 1 3 5 5 7 10 8 5 4 5 6 4 4 5 5 4 4 6 8 12 15 16 19 19 15 13 13 14 8 10 11 8 7 2 0 2 2 1 4 4 2 5 3 2 6 6 2 7 7 5 4 3 2 2 3 6 7 6 5 5 5
20 19 20 21 21 21 20 21 22 23 24 24 20 15 14 16 20 19 10 4 3 6 6 5 4 3 5 9 8 6 9 12 8 2 2 3 4 8 8 5 4 3 4 9 14 19 25 26 26 26 21 16 16 15 10 12 11 11 7 3 1 2 5 2 2 4 2 6 4 4 6 3 6 6 5 5 4 6 6 4 6 6 6 5 4 4 7
20 19 19 20 20 20 20 20 21 21 21 21 18 12 10 14 18 16 8 4 6 7 5 6 8 7 11 16 13 8 10 13 10 5 4 4 7 10 9 4 0 2 8 16 22 25 24 20 16 14 13 12 7 10 14 10 8 10 8 7 2 4 5 2 2 4 2 3 5 5 5 6 6 5 4 5 6 8 8 5 4 4 6 8 7 6 11
20 19 18 19 19 19 20 20 19 20 20 20 17 10 8 13 15 13 10 6 5 6 6 10 15 14 14 16 13 13 15 16 13 7 2 4 6 7 6 2 2 7 16 22 25 21 13 7 5 4 4 3 6 10 10 6 5 7 7 7 5 4 4 2 2 3 2 3 4 4 5 6 6 7 5 2 1 5 6 2 4 4 2 7 10 10 9
19 20 19 18 18 18 19 19 19 20 20 19 16 10 7 10 13 14 13 5 4 10 11 9 11 13 15 16 14 12 14 15 15 11 6 4 5 6 8 9 9 13 17 18 17 10 3 2 3 4 4 4 7 5 3 1 4 7 8 7 6 6 4 3 3 2 3 4 2 1 1 3 4 5 3 1 1 2 6 4 2 4 5 0 8 10 7
19 20 19 18 18 18 18 18 18 20 20 19 16 8 4 8 11 13 14 9 7 10 8 3 8 13 14 16 15 10 8 9 10 10 9 7 6 7 11 13 11 11 10 7 5 2 2 3 3 3 4 3 4 3 1 1 2 3 7 7 6 6 4 4 3 1 2 4 2 2 2 1 4 5 6 4 3 4 7 5 1 4 6 6 3 11 11
19 19 19 18 18 17 17 18 18 19 20 19 16 8 3 6 9 10 13 11 5 6 9 8 12 13 12 15 15 9 6 6 7 6 6 7 10 13 15 14 11 12 10 4 0 3 3 2 2 2 1 1 3 2 0 1 1 3 6 8 9 7 4 4 5 2 2 5 3 1 2 3 5 6 8 8 6 3 6 5 2 5 6 7 1 9 10
19 19 18 18 18 17 16 16 17 18 19 19 17 10 5 6 10 11 12 10 8 12 13 10 12 12 9 9 10 9 8 8 6 4 4 6 9 13 17 17 14 14 14 6 2 4 5 2 3 3 1 1 2 2 1 2 3 1 4 7 8 6 4 4 4 2 2 4 2 1 3 2 4 6 7 10 6 3 7 3 6 6 7 7 5 13 12
20 19 18 17 17 17 15 15 15 16 17 19 17 11 5 6 9 10 13 13 9 10 11 11 16 16 8 5 9 10 10 9 6 4 4 5 5 10 16 15 11 11 12 7 3 4 5 3 3 3 1 4 2 3 1 1 2 2 2 4 4 3 3 3 3 3 2 3 3 0 2 3 4 5 6 7 4 5 5 5 8 7 11 7 12 21 19
21 19 19 17 17 17 15 15 15 14 16 18 16 11 7 5 7 9 13 12 7 13 22 22 17 15 10 11 15 15 14 12 7 4 4 3 8 14 12 7 6 7 8 6 4 3 4 3 3 2 2 4 3 1 1 1 3 2 3 4 2 2 2 2 2 2 1 3 3 1 2 2 4 5 5 7 3 3 4 5 6 8 10 3 16 23 20
22 20 18 17 17 15 15 15 14 13 14 16 17 13 8 7 8 8 10 11 12 21 28 20 12 16 19 19 19 18 16 14 7 2 2 5 12 15 7 3 7 8 5 4 4 2 2 2 3 2 2 3 2 1 2 2 1 1 4 3 1 2 2 1 2 3 2 3 3 1 2 4 12 10 5 5 3 6 6 2 0 2 1 7 19 22 20
23 21 18 18 17 15 15 15 13 14 14 14 17 15 8 9 10 8 9 12 13 18 21 20 21 24 21 17 17 16 15 15 11 8 8 10 12 9 2 1 6 4 2 2 2 2 2 1 2 1 1 2 1 1 3 3 3 3 2 3 2 1 1 2 2 1 3 3 0 1 5 6 13 9 1 1 2 6 7 6 5 5 7 13 18 19 20
23 22 19 18 17 15 14 14 13 14 13 13 16 16 12 12 12 9 12 14 16 21 24 24 23 18 12 12 16 16 18 17 10 8 10 11 9 6 2 2 4 3 3 3 2 1 2 1 1 1 1 2 2 2 2 2 1 5 4 2 3 2 1 3 3 1 2 4 3 2 4 6 12 16 10 7 8 7 7 9 10 10 10 14 17 17 18
23 21 19 19 19 16 14 13 13 13 13 13 14 16 16 16 16 14 13 13 19 25 22 17 14 14 13 12 9 10 15 13 6 7 9 8 5 7 5 3 5 5 5 4 2 1 0 0 1 1 1 1 2 2 3 3 1 3 4 1 1 3 2 3 4 2 2 4 2 1 3 8 17 21 17 14 13 11 9 10 11 11 12 14 16 16 18
23 21 20 20 19 17 14 12 13 12 13 13 13 15 16 16 17 18 14 13 19 20 14 14 15 14 17 18 8 2 6 6 6 6 8 11 7 4 6 6 6 4 3 5 4 2 2 1 1 2 1 1 1 1 2 3 1 1 3 2 3 5 6 4 4 3 3 2 3 3 5 10 16 20 16 13 13 12 12 11 11 10 12 14 14 14 15
24 22 21 20 19 17 14 12 12 12 11 12 13 14 15 14 14 14 12 13 16 11 7 13 16 14 19 21 8 1 6 8 7 9 10 12 10 3 3 7 7 5 3 5 6 5 4 1 1 2 1 0 2 0 1 1 1 1 3 1 3 5 7 5 4 3 2 2 4 1 5 9 13 17 13 9 10 12 12 12 11 10 10 10 11 11 11
24 22 22 20 18 16 14 12 12 11 10 12 12 12 14 14 10 7 7 11 13 9 4 8 14 19 23 15 4 4 9 7 7 11 11 10 9 8 5 5 8 8 7 7 9 6 2 2 1 1 0 1 1 1 1 0 1 2 2 1 3 3 4 2 3 3 4 2 3 2 4 7 10 15 14 9 9 10 10 10 11 10 10 9 9 8 7
23 23 22 20 17 15 14 13 12 11 10 12 11 11 14 12 6 3 4 7 8 5 1 6 19 27 24 11 5 10 9 2 7 9 9 8 9 11 11 7 5 8 7 5 6 4 0 2 1 1 0 2 1 1 1 0 2 3 1 3 5 2 1 2 4 4 2 2 5 6 4 3 6 12 13 9 7 7 8 10 10 10 10 10 8 8 7
23 22 21 19 16 15 14 13 12 11 10 11 10 10 11 8 2 1 3 5 6 5 6 15 28 29 19 9 9 12 7 3 6 4 4 6 7 9 11 9 3 5 7 5 2 1 2 0 1 2 1 1 1 2 3 2 3 3 1 4 6 3 2 2 4 5 4 4 7 8 8 6 7 11 11 8 6 7 9 11 10 9 8 8 9 9 8
23 22 20 19 16 14 13 12 11 11 10 10 9 7 4 2 1 1 2 4 5 9 14 20 21 17 13 12 11 11 7 4 4 2 2 6 7 8 10 9 6 5 8 8 5 3 3 4 5 4 2 4 4 1 2 2 3 1 2 5 6 4 3 4 5 4 3 5 9 11 12 12 12 12 11 8 7 7 9 11 11 9 8 8 9 9 9
23 22 20 18 15 13 12 11 11 11 10 9 9 6 1 1 1 2 3 4 4 9 13 11 8 12 17 16 11 8 7 5 5 3 3 4 6 6 5 5 5 4 4 5 4 3 2 3 4 5 6 7 5 1 1 2 1 1 3 3 1 5 12 12 8 7 8 11 14 16 17 17 15 13 12 10 8 7 8 11 11 10 9 8 7 8 7
22 21 19 17 14 12 12 11 10 11 11 9 8 5 1 1 2 3 5 5 7 11 12 8 10 16 18 14 11 12 10 8 6 6 4 4 6 6 5 4 3 2 2 1 1 1 1 1 2 4 6 7 4 2 2 3 2 1 2 3 5 9 13 13 11 11 14 16 19 20 18 16 14 12 11 10 8 7 8 9 9 9 8 7 6 6 5
21 20 18 16 14 12 11 10 10 11 11 10 10 9 5 3 5 8 9 10 12 14 11 7 8 8 8 11 16 16 12 11 8 7 7 6 6 5 5 4 3 3 5 4 2 1 1 1 1 2 3 4 4 2 3 4 2 2 1 5 9 11 11 10 10 12 14 17 18 17 14 13 13 13 11 9 7 6 6 7 7 6 6 5 5 5 5
21 19 17 15 14 12 11 10 11 12 12 11 11 9 6 4 5 7 8 10 12 11 7 4 4 2 5 13 16 13 13 16 10 6 6 6 5 4 2 1 2 3 3 2 1 1 1 2 2 3 4 4 4 3 3 2 1 1 5 11 15 16 15 13 11 11 12 13 14 13 12 14 15 13 10 8 7 6 6 6 6 5 4 4 4 5 5
20 17 16 15 14 13 11 11 11 12 12 11 9 7 6 4 4 5 6 7 7 7 5 4 3 2 6 10 9 9 15 17 9 3 3 4 5 5 3 1 1 1 1 2 2 1 1 2 3 4 3 4 5 4 1 2 2 4 10 14 15 17 18 16 13 11 11 11 13 15 16 17 16 12 9 8 8 6 6 7 6 6 6 7 7 7 6
19 17 16 15 14 11 10 9 10 10 9 8 7 7 6 5 6 9 10 8 6 4 4 4 4 3 4 5 4 8 16 16 10 6 3 5 5 4 3 2 1 0 1 2 1 0 1 1 4 3 1 2 3 2 2 3 3 8 13 13 12 14 14 12 11 10 8 9 12 14 14 14 13 12 10 9 7 5 5 7 7 6 6 8 9 8 7
19 17 15 13 11 9 7 5 5 6 5 4 5 6 6 8 11 13 14 13 9 7 5 3 3 3 1 2 4 8 14 14 11 9 3 2 2 2 3 2 1 1 1 2 1 1 1 2 4 2 2 1 1 3 7 9 8 10 11 10 8 8 8 8 9 8 7 8 11 13 12 12 12 12 11 9 7 4 4 6 6 4 4 6 6 6 6
19 16 13 9 7 5 3 1 3 3 3 4 6 7 8 10 12 12 12 11 10 10 8 4 3 5 5 3 4 6 8 9 9 8 5 2 2 2 1 1 1 2 1 3 1 1 3 4 4 3 1 0 2 5 10 12 11 10 10 9 8 7 7 7 7 9 11 14 15 15 13 13 12 12 10 9 7 4 3 4 4 2 1 2 2 3 4
17 14 9 7 5 2 1 2 3 4 5 6 7 8 8 7 6 5 6 5 5 8 9 7 6 8 6 4 4 6 6 6 6 4 3 3 4 2 1 2 1 1 1 1 1 1 4 4 4 3 0 2 1 5 11 11 9 8 9 9 10 10 9 8 7 10 15 18 17 15 14 14 13 11 9 9 8 7 6 6 5 3 1 2 2 2 2
15 11 7 5 4 2 2 4 5 6 6 6 6 5 5 4 2 2 4 5 3 5 8 8 8 10 8 6 6 8 6 4 4 3 3 3 3 1 1 1 1 1 2 1 2 1 3 2 2 3 1 4 2 7 12 11 10 11 11 12 12 11 11 10 8 8 12 14 13 11 10 11 11 9 8 8 8 8 7 5 5 4 2 1 2 2 3
10 7 4 4 5 6 6 6 7 6 5 3 4 4 3 3 3 3 4 3 2 4 7 7 8 10 11 10 8 6 4 4 4 3 2 1 1 1 1 0 0 2 2 2 3 1 3 1 1 2 1 4 1 10 14 13 13 13 13 12 11 9 9 9 9 9 12 14 13 11 9 9 8 8 6 6 6 6 5 5 5 5 2 0 1 1 2
8 6 4 4 6 7 8 7 7 6 4 2 3 2 1 2 4 4 2 1 2 4 7 7 5 5 7 10 9 6 4 5 5 3 1 2 1 1 1 0 0 2 1 2 2 2 4 2 1 0 4 5 7 13 15 14 13 13 12 11 10 9 10 12 12 12 13 14 14 12 11 9 8 8 7 6 6 6 5 5 6 5 3 1 0 2 3
8 7 7 8 7 5 5 6 6 5 3 2 1 1 1 2 3 2 3 3 2 3 4 5 4 4 6 7 8 6 5 4 3 1 1 2 2 0 1 1 1 2 1 3 1 3 3 2 1 2 5 8 13 16 15 14 13 12 10 10 11 10 10 13 14 12 10 11 12 11 9 8 8 8 7 6 5 5 5 5 7 6 4 2 1 2 3
6 6 8 9 7 2 1 3 4 4 1 0 0 1 2 2 2 1 2 3 4 3 2 4 6 7 7 6 6 6 5 3 3 2 1 1 1 1 2 2 1 1 2 1 3 4 2 2 2 4 7 11 16 17 15 15 13 11 8 9 10 11 10 11 13 12 10 9 10 9 9 9 8 7 6 5 5 5 6 6 8 8 7 5 3 2 2
4 4 5 6 4 1 1 1 4 4 1 0 2 2 1 2 2 2 2 3 5 6 6 6 6 5 4 6 6 5 3 2 2 2 1 1 0 2 2 0 2 2 1 2 3 2 1 2 3 4 7 13 17 16 16 16 15 12 11 11 11 11 11 11 12 11 10 9 8 8 8 8 7 6 6 6 6 6 5 6 6 7 9 8 5 2 2
1 0 2 3 1 1 1 1 2 2 1 2 2 3 2 2 2 2 3 4 6 10 15 15 9 4 3 6 5 3 3 2 1 1 1 1 2 1 1 2 2 1 2 2 2 2 0 3 4 2 6 14 19 19 18 17 15 13 12 12 13 12 11 10 8 7 7 7 8 8 8 6 5 5 6 5 5 4 5 6 6 6 7 8 6 4 4
1 1 2 1 1 1 1 1 1 1 2 2 2 3 3 4 3 4 7 8 10 15 20 19 12 6 4 4 3 3 4 3 1 2 0 3 2 2 2 0 1 2 3 2 1 1 2 5 5 2 7 15 21 21 19 16 13 12 12 13 14 13 10 8 8 8 9 9 9 10 10 8 5 4 5 4 3 3 4 5 5 5 7 9 9 8 7
2 3 2 0 2 2 2 2 2 5 5 5 8 10 7 3 3 6 9 11 12 16 20 18 12 6 4 3 2 3 3 2 1 2 1 2 1 2 2 3 1 0 1 1 2 3 4 5 4 5 9 16 22 22 19 15 14 14 14 15 15 14 12 11 11 11 11 10 10 10 9 6 3 3 5 6 5 4 4 5 5 5 7 10 11 10 9
3 2 1 1 1 1 2 3 9 11 11 14 16 14 11 6 4 7 9 10 10 14 18 16 9 4 3 3 2 2 2 1 1 2 1 2 1 1 2 2 1 2 1 3 5 4 5 6 7 10 12 17 21 20 17 14 14 15 16 15 14 13 12 10 9 9 9 10 11 10 8 5 4 5 6 6 6 4 4 4 5 6 6 7 8 9 9
2 2 1 2 2 2 5 10 11 10 13 18 19 12 7 6 4 5 8 9 9 12 16 13 5 1 3 3 2 1 1 0 1 1 1 2 1 1 1 1 1 2 1 2 4 5 7 10 11 12 14 19 21 18 14 14 15 16 16 14 12 11 10 9 8 8 9 10 10 9 7 6 6 6 6 6 5 4 3 3 3 4 5 5 5 7 8
3 3 3 3 2 4 7 9 7 6 11 18 19 12 6 4 3 3 6 8 9 11 12 9 2 1 2 2 1 1 2 2 1 1 1 0 1 1 1 1 2 3 3 4 7 11 13 14 13 14 17 20 19 15 13 14 16 16 15 13 12 12 10 10 9 9 9 10 10 8 8 8 7 6 5 6 6 5 5 3 2 2 3 4 4 5 7
2 3 4 4 4 5 7 8 6 4 8 15 19 15 7 3 3 4 6 7 7 7 6 5 3 2 2 1 1 1 3 2 1 1 0 2 1 3 3 3 4 4 5 9 14 18 18 16 15 16 18 17 15 12 13 15 16 14 13 13 13 11 9 8 9 8 8 9 10 9 8 7 7 5 6 6 6 7 7 4 2 2 2 2 3 4 6
3 3 5 7 9 10 10 10 10 10 13 18 20 14 5 6 7 7 5 5 6 6 4 4 3 1 1 1 2 2 2 2 2 2 2 1 1 1 2 5 7 11 16 18 19 19 17 16 15 16 16 15 13 12 13 13 13 12 11 12 13 11 8 9 10 9 8 8 9 8 8 8 7 6 6 7 7 7 7 6 4 3 3 2 2 3 5
Wind_Direction
350 353 355 354 351 351 351 350 351 353 348 343 346 349 346 328 315 329 338 312 277 228 215 243 218 230 265 269 272 281 280 267 277 270 221 219 235 225 233 245 232 216 217 237 254 227 236 250 226 237 245 214 219 221 203 203 220 216 197 220 214 210 156 139 156 113 163 190 85 132 158 140 146 214 190 144 158 156 144 169 186 170 192 136 103 198 256
350 353 356 355 353 353 352 351 355 358 353 344 340 340 334 313 309 325 348 315 291 249 245 262 248 265 277 280 283 283 276 262 269 271 216 217 236 211 226 237 218 221 228 236 251 242 230 268 250 238 256 225 219 220 203 195 213 230 206 205 194 204 220 124 131 119 149 172 15 231 204 174 162 202 196 164 160 150 148 143 110 157 216 159 134 216 251
349 352 357 357 354 352 352 355 359 360 355 346 341 337 331 320 309 315 320 305 277 234 240 265 274 288 291 292 294 290 275 257 264 273 253 244 242 202 236 249 239 251 261 260 262 250 225 250 272 247 249 239 222 214 195 190 206 228 237 252 242 177 187 118 140 157 169 174 192 205 195 178 160 161 189 186 155 147 163 156 96 203 238 158 145 202 253
350 351 356 355 354 354 354 356 1 4 360 351 352 350 335 325 322 323 324 309 267 244 251 257 260 283 301 300 297 299 288 281 290 288 259 236 230 217 241 253 254 251 248 266 264 242 219 221 257 278 264 275 230 184 183 194 207 221 238 259 286 129 146 113 135 156 178 178 199 173 142 140 168 175 226 225 174 131 118 118 148 191 183 179 216 190 147
350 350 353 354 356 356 354 356 2 8 6 358 4 10 355 340 334 329 331 317 278 250 241 227 223 261 296 323 310 300 297 304 309 304 277 241 221 217 243 235 234 234 213 230 251 254 256 236 256 275 261 283 274 172 177 198 209 216 235 257 211 97 319 281 132 142 176 186 188 148 114 127 162 170 237 235 187 121 100 135 188 164 125 224 259 192 129
350 350 351 353 357 356 354 357 0 6 10 9 15 22 18 2 320 319 331 321 294 305 281 271 271 265 265 279 282 284 290 295 297 308 329 326 214 186 251 220 219 235 231 235 266 302 331 312 279 285 295 315 304 178 173 207 206 203 226 290 142 114 259 254 149 123 83 8 184 147 112 125 160 161 189 217 179 139 133 181 195 153 146 209 232 185 149
350 350 351 353 356 355 355 356 358 4 11 15 26 32 19 359 318 316 330 314 288 300 298 293 295 277 253 248 246 264 284 284 270 253 308 312 214 180 208 235 244 251 233 206 305 333 332 312 297 335 6 322 297 158 162 215 185 146 62 304 200 109 232 255 155 95 39 1 315 150 128 129 153 167 186 187 164 156 159 178 175 159 179 194 173 158 147
350 351 352 353 354 354 356 356 356 1 7 14 32 36 10 352 337 318 317 308 294 300 306 308 308 292 276 257 238 234 251 277 291 270 242 283 295 168 210 283 297 300 301 153 232 233 195 218 261 312 16 329 314 97 136 185 111 80 350 259 230 125 235 260 88 71 10 352 346 160 148 149 169 208 230 170 127 144 171 159 136 128 215 200 140 128 95
349 352 351 351 352 354 357 358 356 1 6 10 20 28 11 355 346 328 312 303 309 319 323 324 315 319 352 309 286 291 273 285 307 304 246 231 212 199 259 300 305 317 349 334 276 273 258 241 250 252 252 270 283 295 222 148 114 139 219 242 258 102 237 305 62 70 337 335 348 174 136 122 158 225 247 203 126 140 208 191 160 153 163 139 110 122 172
348 351 350 350 352 354 355 358 358 0 6 7 6 7 3 353 347 338 319 291 309 328 326 326 327 331 329 280 280 285 293 303 313 315 275 229 216 248 285 293 302 325 340 319 304 306 303 291 284 279 262 247 261 268 235 141 132 181 202 192 209 109 102 29 74 93 276 313 331 130 100 86 215 237 225 196 148 150 185 234 201 166 149 144 159 185 191
347 349 350 350 352 354 356 358 359 360 5 5 358 353 357 351 340 334 322 279 305 330 327 333 342 327 311 314 310 294 306 322 326 317 310 277 278 305 302 283 298 315 306 321 325 318 311 303 294 285 269 256 261 253 206 149 158 193 178 118 328 82 100 117 93 113 237 311 357 88 107 153 236 237 196 178 168 155 162 206 209 177 149 144 169 186 156
345 347 350 350 350 353 355 356 358 360 2 1 358 359 7 354 340 333 324 294 311 327 331 317 309 309 320 326 333 335 325 322 317 287 243 262 297 315 311 287 240 306 320 333 330 321 314 307 296 284 265 259 245 185 172 172 191 190 151 121 121 67 81 108 73 105 168 340 45 109 171 221 248 273 254 215 190 161 161 203 230 173 136 123 119 150 161
344 345 347 348 349 351 353 354 357 358 358 1 4 9 7 355 347 338 327 305 297 322 326 307 301 309 327 330 332 333 326 325 333 334 244 251 299 322 327 313 270 305 319 323 318 313 313 309 309 315 297 326 80 130 166 182 161 149 118 107 122 101 94 113 73 93 133 46 72 151 211 258 295 314 308 283 104 121 132 103 348 358 98 136 147 170 177
342 343 344 345 348 349 350 352 354 353 356 2 6 8 7 358 351 340 330 311 288 311 309 302 309 322 332 329 325 326 327 338 353 356 348 325 306 309 329 334 325 319 317 312 307 310 339 354 347 6 360 26 80 122 212 231 116 119 106 100 112 113 108 90 54 80 126 107 105 219 287 325 325 325 311 285 31 142 145 133 332 327 339 4 164 168 169
340 341 341 343 345 347 348 350 353 351 354 3 9 14 14 355 351 345 333 318 303 305 295 289 332 332 327 322 323 330 337 350 357 343 333 340 337 339 351 350 343 339 331 307 299 338 43 19 28 49 23 43 130 165 269 359 27 75 100 103 94 95 110 122 112 80 93 101 77 21 56 212 255 270 273 270 253 200 144 115 259 292 346 345 197 168 158
340 338 339 341 342 345 347 347 351 351 350 359 11 21 15 347 343 339 330 320 302 292 292 305 325 325 314 312 321 337 348 344 345 335 332 347 346 349 0 7 12 10 0 336 276 38 43 45 55 92 105 108 141 181 258 108 32 17 63 73 64 61 68 100 101 57 60 101 98 113 155 213 244 251 276 293 280 206 122 100 259 274 341 349 234 163 152
340 338 337 338 338 341 345 345 349 352 348 352 5 18 17 340 334 338 337 325 293 283 292 317 339 331 314 310 324 343 347 334 334 334 324 328 330 337 350 4 23 23 9 7 79 32 30 33 19 51 110 343 101 156 205 110 105 70 49 52 49 44 33 50 72 51 74 104 89 210 194 252 262 245 279 301 306 85 104 158 242 264 322 330 174 164 161
339 336 334 336 336 336 341 343 346 350 346 347 359 16 20 336 334 344 339 327 304 279 289 319 326 315 307 310 312 319 329 325 319 320 303 291 312 329 334 348 15 20 9 23 70 26 26 27 1 27 350 321 17 132 194 111 133 161 110 72 52 50 46 56 103 96 80 104 99 300 258 270 257 252 297 325 356 77 116 206 238 275 310 301 177 170 168
336 334 332 334 334 333 336 340 342 345 345 344 352 13 33 5 340 339 334 329 302 284 301 313 312 304 313 317 303 305 322 323 318 333 327 308 333 334 327 337 12 5 2 34 64 25 27 19 336 23 30 341 356 50 317 217 176 164 120 103 74 76 48 21 130 134 91 116 115 334 276 288 296 298 344 23 56 172 204 227 250 281 305 266 167 169 171
334 333 332 331 331 330 330 333 337 340 342 342 343 358 34 28 352 337 332 327 303 295 308 322 321 311 314 310 300 300 311 315 315 328 300 307 332 340 348 18 2 355 3 33 36 22 34 3 322 17 43 333 311 2 337 298 264 103 126 141 151 149 131 352 213 189 112 87 68 85 187 307 330 326 336 36 79 191 191 146 165 262 8 136 154 163 167
333 331 331 330 328 326 326 328 331 334 338 340 337 341 10 26 1 326 302 307 296 291 304 318 316 312 313 315 314 305 295 297 299 288 292 316 340 1 84 245 317 333 13 27 18 7 14 348 325 9 26 319 321 27 13 349 340 359 99 140 123 105 165 187 201 185 100 113 94 188 207 288 341 1 17 35 86 167 165 129 111 112 118 135 145 152 160
333 330 331 331 328 324 323 323 325 328 330 333 332 329 338 4 3 329 293 287 280 282 295 307 314 320 334 346 344 334 320 316 302 261 270 303 342 29 95 271 310 320 323 2 60 39 345 351 37 35 12 347 346 338 9 78 14 335 353 87 95 14 266 158 130 52 104 147 183 245 264 317 26 48 41 28 66 110 138 130 117 108 114 131 138 144 156
332 329 329 330 328 325 321 319 322 325 324 327 328 323 327 346 354 336 313 304 306 308 310 317 330 345 356 358 358 339 324 314 267 225 239 259 314 18 31 343 341 342 341 9 52 177 252 142 121 87 24 341 359 337 353 57 89 332 352 34 63 352 356 108 114 104 94 90 60 342 357 25 54 64 49 33 54 80 95 105 107 104 104 113 124 140 152
331 329 327 328 327 325 321 316 317 319 319 322 322 318 325 342 346 334 327 327 330 331 329 323 328 344 350 347 350 359 331 311 270 256 232 226 254 353 31 7 347 344 10 29 21 12 44 13 12 82 123 286 37 15 350 33 52 6 21 353 321 357 21 62 102 110 102 68 321 330 49 51 62 74 67 41 43 65 79 81 83 93 101 104 111 126 141
328 328 327 325 323 324 323 314 312 314 314 317 317 314 322 338 341 330 326 331 330 328 318 315 322 339 343 337 337 17 346 333 293 258 232 227 238 229 65 25 8 354 342 345 344 360 35 31 2 77 120 306 54 106 249 53 73 86 62 29 295 346 16 50 93 74 91 187 245 276 77 67 67 79 80 53 45 60 71 73 75 82 91 99 106 114 129
326 328 326 323 322 326 324 313 309 310 308 311 314 313 320 333 336 316 315 330 324 305 277 296 312 334 345 346 16 17 345 324 265 248 240 237 237 230 248 327 349 346 339 331 322 325 25 71 46 101 146 321 69 132 245 296 78 97 92 289 280 315 352 38 102 78 64 117 207 172 83 58 64 80 83 74 63 64 69 77 82 82 82 89 103 109 115
325 327 325 322 325 328 324 313 307 305 304 308 311 313 318 327 335 321 338 349 331 310 266 285 306 327 342 349 360 4 359 279 242 251 242 236 240 243 245 256 319 334 328 325 317 303 103 39 359 128 63 331 348 23 334 253 69 77 76 316 336 18 79 78 91 106 124 196 203 180 136 76 69 82 88 91 88 83 82 79 75 74 76 79 91 103 107
323 325 324 324 327 326 320 311 304 302 304 304 307 318 322 321 330 30 1 345 316 288 280 292 302 316 334 344 352 7 8 259 241 240 243 248 245 247 243 225 216 305 280 252 252 202 139 105 214 162 52 306 262 350 347 1 43 52 339 332 356 13 193 153 132 155 190 197 185 162 133 113 91 86 95 106 101 90 82 68 58 60 67 71 80 95 112
322 324 323 322 323 322 316 310 304 301 301 303 311 323 328 310 316 338 328 323 303 289 295 302 304 309 318 324 342 8 9 297 245 207 269 261 245 255 261 235 215 251 249 221 195 181 182 182 180 177 176 171 162 15 350 49 59 31 300 325 342 2 48 91 137 148 105 116 139 132 115 107 101 98 102 105 100 101 86 63 51 50 51 60 78 88 108
322 324 321 318 319 319 313 307 302 297 296 305 318 322 289 209 259 295 308 305 288 297 309 312 301 303 314 323 339 2 6 331 281 280 313 278 260 279 289 253 236 255 240 201 180 177 184 181 170 170 179 173 149 91 117 125 76 301 248 251 247 75 66 67 91 116 111 119 129 123 111 106 105 103 99 92 93 104 92 69 59 53 44 50 71 76 88
322 322 318 315 317 317 310 302 297 291 289 295 303 297 261 159 234 284 305 293 285 306 317 301 281 298 313 328 337 336 336 328 298 278 282 288 280 282 286 276 276 326 9 14 42 118 156 176 141 146 173 174 149 111 121 113 84 298 236 182 140 100 77 69 79 104 119 126 124 116 109 110 114 105 88 79 81 92 94 82 70 60 49 49 61 62 70
323 320 316 314 313 312 307 298 287 279 275 275 272 267 268 285 282 284 284 275 283 304 314 300 293 301 307 325 339 344 342 329 303 254 254 285 286 269 270 272 282 343 3 7 9 27 69 151 91 81 113 132 121 93 74 92 117 249 233 110 111 110 105 95 91 108 125 131 127 116 101 98 105 100 88 83 80 80 87 85 79 78 73 65 68 70 76
322 317 313 311 308 305 299 289 278 270 267 269 271 274 283 288 281 282 276 271 283 297 295 282 297 280 279 311 336 4 0 336 311 232 229 266 260 239 249 277 287 314 350 16 338 336 33 75 84 73 70 81 91 89 71 62 339 257 110 108 108 109 110 106 103 112 122 127 128 122 108 104 106 105 104 100 83 73 76 74 79 108 118 100 91 89 85
321 315 309 305 304 302 294 280 270 264 265 272 279 287 288 275 278 299 296 283 287 288 264 251 263 268 293 306 327 5 357 341 325 254 226 235 228 226 218 177 285 292 327 330 309 305 5 39 91 98 72 57 68 76 58 317 332 99 111 113 112 110 107 103 101 102 104 111 117 117 118 122 121 116 116 108 86 74 74 72 81 114 119 99 87 84 86
318 312 307 306 307 303 292 278 268 265 270 280 288 294 295 294 306 313 306 296 288 267 246 245 238 252 314 314 313 349 349 341 329 316 266 209 213 238 226 181 102 133 280 312 324 79 358 54 110 106 31 23 59 70 233 226 133 109 113 117 119 119 114 108 107 107 109 119 122 119 123 132 128 118 115 112 100 89 80 75 83 107 107 89 77 73 81
316 311 309 312 315 308 294 278 263 260 268 279 281 288 295 296 298 296 289 282 271 247 243 274 255 226 249 271 275 320 337 337 337 340 333 197 216 252 216 164 131 220 274 353 31 37 25 99 111 72 5 36 58 222 197 173 145 128 123 119 120 124 119 114 119 124 124 128 129 129 132 135 126 115 110 107 100 95 87 81 86 97 93 79 69 65 71
316 313 311 312 318 317 298 227 208 226 247 260 269 283 287 282 283 282 274 267 260 244 235 251 272 246 228 228 275 312 330 332 337 351 6 1 323 291 215 104 169 231 356 30 40 38 59 87 87 61 54 232 266 214 182 163 151 147 139 123 116 122 126 127 127 121 115 116 122 126 126 122 114 108 102 97 91 81 71 67 65 63 56 33 25 31 46
317 314 306 300 311 335 149 191 225 253 272 273 274 284 282 268 266 268 245 228 240 239 223 219 256 258 233 220 274 293 303 318 335 357 13 353 341 329 353 36 119 172 35 2 246 28 50 57 64 79 134 294 357 162 174 170 156 150 145 130 118 116 122 133 138 126 118 118 120 123 121 113 106 100 93 90 85 75 68 59 44 28 355 304 304 309 328
318 313 294 270 268 249 220 246 266 276 281 274 265 266 259 235 225 237 206 192 211 228 212 215 244 244 217 211 270 286 290 313 344 358 1 3 5 352 332 350 25 69 60 275 257 61 64 18 19 69 328 312 37 141 166 167 146 137 135 127 117 112 113 116 116 117 119 120 121 123 118 111 107 104 98 95 92 83 72 52 29 21 20 281 255 257 271
320 318 293 255 250 245 243 255 273 283 287 271 244 243 240 224 224 207 176 171 220 217 201 215 250 248 231 229 252 280 299 305 305 308 322 342 346 337 358 341 107 76 67 269 263 99 102 104 42 83 232 273 149 136 144 141 131 130 129 123 119 119 115 110 109 114 117 115 114 113 109 106 108 108 103 97 92 84 69 41 29 32 43 128 214 250 263
334 336 319 298 283 263 250 249 260 272 275 240 219 243 246 228 237 229 190 182 283 234 214 220 246 257 245 238 235 244 277 286 281 280 282 276 291 16 40 290 297 62 62 244 240 93 88 84 57 101 229 217 164 146 144 138 130 128 126 122 123 121 111 110 118 124 121 116 115 115 112 109 107 105 103 95 78 66 56 38 31 34 41 51 336 293 282
329 331 326 325 321 293 259 247 240 242 245 220 225 280 262 220 246 254 214 217 259 249 217 221 246 285 294 277 255 252 271 286 280 268 250 262 266 111 88 336 38 73 210 229 176 75 62 69 73 264 236 192 163 158 158 154 146 139 132 128 133 133 123 118 121 122 118 117 117 113 106 102 96 92 92 87 73 67 60 38 26 25 26 18 342 307 283
304 312 322 327 331 340 285 244 217 202 198 74 168 290 305 284 280 268 225 250 290 298 250 247 272 295 318 322 290 268 269 280 279 264 209 230 253 72 61 32 35 202 238 242 75 68 72 144 185 238 225 190 171 163 158 156 156 156 151 145 145 146 141 130 124 118 115 116 116 110 103 99 95 90 84 74 71 72 62 43 35 31 23 12 359 338 297
277 277 306 322 327 71 94 217 191 175 168 336 174 179 277 285 262 263 286 306 314 320 324 316 298 288 323 346 331 299 272 265 276 278 257 250 338 58 66 286 253 254 298 28 55 63 125 200 228 247 216 192 182 170 158 155 156 152 147 148 152 154 150 138 128 122 119 117 117 114 103 91 87 93 91 76 66 65 60 54 50 38 27 23 24 23 352
253 253 346 342 333 152 158 245 195 186 239 252 193 182 194 206 228 289 313 305 310 331 340 338 329 307 324 344 340 308 286 305 306 251 239 66 53 47 214 225 240 19 47 50 48 50 355 261 273 270 195 189 184 172 162 161 161 155 150 151 153 154 153 145 138 137 137 134 132 130 123 115 113 119 113 88 57 51 65 65 51 33 29 33 38 40 33
21 24 17 359 267 233 211 190 195 215 211 197 211 233 228 213 239 310 338 345 346 348 346 340 332 324 332 343 334 294 299 322 318 243 211 74 76 250 247 103 54 40 48 53 80 154 226 248 256 222 179 182 177 169 165 164 161 162 162 156 150 149 149 147 150 154 149 144 144 142 138 132 124 120 122 112 74 53 63 63 51 42 44 46 47 49 45
355 11 36 63 299 285 202 188 298 305 301 306 303 294 285 277 299 324 338 344 348 352 351 346 341 341 341 340 321 291 294 328 344 280 302 90 111 278 352 49 70 176 100 125 201 225 238 235 207 158 163 171 169 165 164 161 160 163 161 151 147 149 146 139 141 147 147 147 148 143 136 130 118 113 125 126 113 90 74 70 68 63 55 51 50 50 47
346 2 8 283 301 216 205 318 332 327 324 331 328 312 292 287 316 334 331 328 335 348 350 345 341 344 343 341 327 282 283 332 329 281 273 94 77 351 20 34 313 274 160 165 189 213 220 194 157 142 156 168 166 162 160 161 164 165 160 153 153 156 152 144 144 148 153 157 153 139 126 128 141 142 139 136 125 105 84 80 77 63 53 55 56 48 42
312 313 273 278 290 278 300 324 332 325 326 341 350 344 306 283 301 331 329 321 324 336 338 333 321 289 318 327 332 311 299 276 219 286 10 60 88 183 122 80 314 298 263 209 198 190 181 168 150 141 154 163 161 156 156 161 164 164 162 162 166 167 165 165 164 158 156 160 157 144 135 141 148 151 158 158 141 112 97 105 95 64 54 61 62 49 43
272 261 253 254 268 302 323 337 345 329 325 336 345 347 330 300 298 324 335 328 322 326 332 336 341 238 309 337 14 338 289 257 192 61 26 147 191 166 122 156 215 218 211 190 171 162 161 158 149 145 151 156 155 150 147 150 155 157 157 160 164 160 155 157 160 155 152 155 156 152 150 151 149 146 149 151 144 129 120 123 123 84 72 66 54 49 50
271 251 246 248 256 282 307 317 311 289 301 311 312 308 306 320 332 324 333 343 348 346 342 339 335 331 348 29 63 275 282 296 19 68 224 235 189 127 139 211 231 213 173 160 156 153 153 152 150 146 144 144 145 142 138 141 148 152 154 160 163 158 151 155 161 160 158 161 164 162 156 150 149 145 136 137 148 154 147 135 126 142 137 106 59 51 54
248 259 279 281 278 279 287 290 286 287 297 304 304 303 325 28 17 350 332 352 17 20 350 316 316 348 60 260 279 293 310 335 3 10 345 312 337 40 207 206 180 156 150 150 150 150 150 149 147 143 139 137 136 136 139 147 156 161 165 168 167 161 158 165 167 164 167 178 182 176 161 152 153 157 150 145 153 162 162 158 161 168 165 149 106 57 48